This is the latest recevied weather packets stored in our database for station/object KB0Y. If no packets are shown the sender has not sent any weather packets the latest 1 day(s).
| Time | Temp. | Humidity | Pressure | Rain* | Wind** | Luminosity | Snow |
|---|---|---|---|---|---|---|---|
| 1778018415 | 29.44° C | 52% | 1017.9 hPa | 0 mm | - | 432 W/m² | - |
| 1778018113 | 29.44° C | 53% | 1017.9 hPa | 0 mm | - | 449 W/m² | - |
| 1778015992 | 29.44° C | 52% | 1017.6 hPa | 0 mm | - | 528 W/m² | - |
| 1778015083 | 30.56° C | 52% | 1017.9 hPa | 0 mm | - | 132 W/m² | - |
| 1778012962 | 28.89° C | 54% | 1018.3 hPa | 0 mm | - | 150 W/m² | - |
| 1778012355 | 28.33° C | 51% | 1018.6 hPa | 0 mm | - | 629 W/m² | - |
| 1778008720 | 28.89° C | 51% | 1019.3 hPa | 0 mm | - | 611 W/m² | - |
| 1778008419 | 28.89° C | 52% | 1019.3 hPa | 0 mm | - | 635 W/m² | - |
| 1778007203 | 28.33° C | 53% | 1019.3 hPa | 0 mm | - | 187 W/m² | - |
| 1778005687 | 27.78° C | 57% | 1019.6 hPa | 0 mm | - | 210 W/m² | - |
| 1778004474 | 27.78° C | 58% | 1019.6 hPa | 0 mm | - | 557 W/m² | - |
| 1778003867 | 27.78° C | 58% | 1020 hPa | 0 mm | - | 487 W/m² | - |
| 1778001444 | 27.22° C | 57% | 1020.3 hPa | 0 mm | - | 421 W/m² | - |
| 1778000838 | 27.22° C | 58% | 1020.3 hPa | 0 mm | - | 594 W/m² | - |
| 1778000535 | 27.22° C | 58% | 1020.3 hPa | 0 mm | - | 600 W/m² | - |
| 1777999622 | 27.22° C | 60% | 1020.3 hPa | 0 mm | - | 550 W/m² | - |
| 1777998413 | 26.67° C | 66% | 1020.6 hPa | 0 mm | - | 564 W/m² | - |
| 1777998110 | - | - | - | 0 mm | - | - | - |
| 1777997504 | 26.67° C | 69% | 1021 hPa | 0 mm | - | 599 W/m² | - |
| 1777997202 | 25° C | 71% | 1021 hPa | 0 mm | - | 571 W/m² | - |
| 1777996899 | 25° C | 71% | 1021 hPa | 0 mm | - | 571 W/m² | - |
| 1777996595 | 25° C | 70% | 1021 hPa | 0 mm | - | 568 W/m² | - |
* Rain latest hour (hover to see other rain measurements)
** Current wind speed in m/s (hover to see current wind gust speed)